Location: Unspecified
(0.0000°N, 0.0000°E)
Time: 21:36:21
(UTC+00:00)

Vanguard 1 Rocket - Pass Details

Date: 27 January 2020
Orbit: 650 x 4226 km, 34.3° (Epoch: 23 February)

Event Time Altitude Azimuth Distance (km) Brightness Sun altitude
Exits shadow 05:00:42 - 230° (SW) 2,534 9.4 -17.0°
Reaches altitude 10° 05:01:32 10° 229° (SW) 2,180 9.1 -16.8°
Maximum altitude 05:06:09 73° 144° (SE) 675 6.8 -15.7°
Drops below altitude 10° 05:10:43 10° 59° (ENE) 2,168 9.9 -14.6°
Sets 05:13:19 0° 57° (ENE) 3,277 10.8 -14.0°
